Theta_e
331 327 325 320 307 309 307 310 316 317 318 323 326 326 324 324 322 325 350 352 353 362 365 361 366 367 367 365 364 363 362 362 362 361 362 362 361 362 362 363 364 364 360 360 361 359 359 357 355
327 324 319 313 305 304 307 314 313 318 321 323 324 324 322 321 332 342 347 354 356 364 366 361 365 366 367 365 363 363 362 362 361 361 362 362 361 362 362 363 364 362 359 357 357 356 356 355 354
334 323 311 305 304 304 308 315 317 319 322 320 320 324 323 327 338 343 353 356 360 364 365 364 365 365 366 365 363 362 361 361 361 361 362 361 361 361 362 363 363 360 358 356 354 353 352 352 353
323 317 312 303 301 307 310 316 319 318 321 322 321 319 325 340 341 346 353 355 359 362 364 361 364 364 365 365 364 363 362 361 361 361 361 361 360 361 361 363 363 360 357 355 355 353 353 352 352
321 314 304 302 302 306 312 316 318 316 318 320 322 318 322 341 345 344 349 353 359 362 362 362 363 364 364 364 364 363 362 361 361 361 361 360 361 361 361 362 361 359 357 356 355 353 352 353 352
311 311 302 300 304 308 310 313 314 315 317 320 319 320 324 343 345 348 353 354 360 360 363 363 362 362 362 363 363 362 361 361 361 360 360 361 360 360 361 361 361 358 357 356 354 351 350 349 350
309 307 302 303 304 307 310 313 310 312 314 316 322 318 324 337 344 349 354 356 359 360 362 362 356 359 361 361 361 361 360 359 359 358 359 360 360 360 360 361 360 359 357 356 354 352 350 348 348
312 309 304 305 303 305 312 313 314 311 311 319 323 317 319 337 344 348 352 355 357 358 360 357 354 352 353 356 360 359 359 358 358 358 358 359 359 359 359 359 359 357 357 355 354 351 349 348 348
314 304 301 303 305 308 313 311 314 316 312 314 317 321 326 338 340 345 347 351 354 355 358 358 354 351 349 347 355 357 358 357 357 357 358 354 346 351 355 354 358 357 355 353 352 350 350 349 349
305 302 302 308 310 309 312 312 312 311 310 311 313 318 325 331 334 337 342 345 349 353 356 357 357 353 350 348 353 348 350 349 348 347 350 344 348 348 348 354 355 354 354 353 352 352 351 349 341
303 299 306 307 309 311 310 311 313 310 308 311 312 314 317 319 325 333 339 343 348 354 356 356 360 361 354 351 350 350 350 348 348 349 347 351 348 347 347 352 349 349 352 347 349 348 346 346 345
300 304 304 304 307 307 307 311 311 311 311 315 316 317 317 317 320 331 333 339 346 353 356 358 359 359 362 352 350 350 349 350 349 350 352 355 347 351 348 345 345 349 346 346 347 344 346 346 347
301 303 304 306 305 306 308 308 309 311 314 315 315 316 316 317 318 326 332 335 343 351 357 359 364 362 359 362 354 353 351 350 352 352 352 351 348 354 348 347 346 347 343 345 345 345 346 348 351
303 303 303 305 304 305 303 305 308 311 314 314 314 314 315 316 318 321 323 333 341 350 357 361 366 364 366 362 362 355 357 356 353 353 353 351 348 351 346 347 347 344 344 347 349 349 350 351 350
303 299 300 301 302 303 305 300 302 309 313 313 314 315 315 316 318 319 322 325 339 349 360 367 367 367 368 367 364 357 355 353 352 352 356 352 351 354 353 344 344 343 349 355 356 355 354 351 353
299 299 294 301 302 302 302 295 304 308 308 309 313 315 316 318 318 319 322 325 339 349 356 367 361 362 365 367 362 357 355 352 352 352 354 354 352 352 350 342 343 343 351 352 352 356 354 355 352
298 292 294 297 302 301 300 297 303 308 308 307 310 314 316 318 319 322 321 325 338 350 357 363 362 358 364 366 362 363 366 354 352 352 352 355 353 350 349 343 349 358 351 356 359 356 353 352 345
290 291 294 294 299 299 298 298 303 306 307 307 309 310 312 316 319 321 322 325 327 345 358 366 360 360 364 362 365 357 357 354 352 352 352 356 353 351 351 346 357 358 355 345 345 347 348 343 340
296 294 292 296 298 297 297 298 301 305 306 307 307 310 311 313 320 322 323 326 328 343 360 364 357 359 360 356 353 352 350 352 351 352 357 357 355 354 354 345 352 351 347 343 345 344 340 336 340
296 294 293 296 300 298 297 295 300 305 305 307 309 309 311 313 316 319 321 325 333 350 360 360 356 358 357 357 357 353 354 351 351 354 356 356 355 354 351 349 352 351 346 343 341 341 334 334 337
296 294 294 294 298 299 296 293 297 302 305 307 310 312 313 314 316 319 320 325 329 350 360 355 357 360 356 359 358 360 357 355 350 353 352 354 354 355 356 354 350 348 345 338 335 337 338 334 342
292 298 296 295 293 289 296 286 294 299 302 305 307 309 311 314 317 319 320 323 335 352 358 355 358 358 360 364 357 358 349 346 348 352 354 355 358 356 352 349 345 342 340 338 337 338 340 338 336
294 298 297 296 293 291 292 287 292 298 299 302 306 309 311 314 317 318 320 325 345 354 353 354 357 358 359 362 360 357 353 353 351 350 352 353 352 348 342 342 343 341 339 338 340 340 339 337 334
300 296 296 295 292 285 290 288 290 294 298 302 305 308 310 313 316 319 321 331 348 355 352 351 351 354 356 358 359 360 357 351 348 347 346 347 345 343 344 342 340 342 341 338 338 337 336 332 331
298 293 286 284 284 283 291 287 291 298 302 304 305 307 311 313 316 318 320 337 344 352 349 351 350 351 354 355 355 354 351 352 352 351 348 346 341 338 342 343 340 336 336 333 331 332 330 327 324
294 292 287 280 281 284 291 286 291 299 304 307 310 311 312 313 316 318 325 336 345 350 346 351 352 351 354 353 351 350 353 350 349 352 344 340 337 337 335 335 333 330 329 329 329 327 324 324 322
295 291 296 289 291 286 289 292 298 300 302 305 308 310 311 313 316 319 328 336 348 344 350 348 350 349 349 352 352 354 355 353 347 344 343 338 337 334 332 328 326 326 327 326 326 322 323 324 324
297 298 289 290 281 280 286 287 289 295 298 303 307 309 312 314 317 319 329 341 347 345 348 350 350 352 352 351 350 350 351 348 341 340 338 336 333 331 326 324 324 323 324 324 324 322 324 324 322
293 292 294 293 290 284 281 287 298 298 301 303 307 309 312 314 317 319 330 341 343 349 345 346 351 352 350 349 348 347 344 341 338 335 333 332 330 327 323 320 321 321 321 322 323 323 322 322 322
298 294 294 287 287 290 289 287 301 304 304 305 305 308 312 315 317 322 332 341 343 342 345 346 345 345 346 346 342 339 338 336 333 331 329 328 326 324 323 321 320 320 321 323 321 320 320 319 318
Wind_Speed
12 13 11 7 9 10 19 22 21 20 10 9 7 5 6 10 4 5 9 9 12 20 21 18 14 14 16 17 17 17 17 17 17 17 16 15 15 14 12 11 10 10 11 10 10 9 8 8 7
13 11 8 8 11 17 17 22 23 18 8 2 4 7 11 9 10 14 12 12 15 19 19 19 15 16 16 17 17 16 16 16 16 17 16 16 14 13 13 12 11 11 10 10 9 8 7 7 7
17 13 10 8 18 21 20 23 19 18 13 5 11 10 8 4 8 7 15 17 19 18 20 19 17 17 17 17 16 16 16 16 17 16 15 15 14 13 12 11 10 10 10 9 9 8 7 7 6
10 8 9 16 23 26 29 24 23 8 11 12 12 9 2 8 3 6 14 14 18 19 20 22 18 17 16 17 16 14 15 15 15 16 15 13 13 12 12 10 10 9 9 9 8 7 5 5 5
11 10 14 19 27 28 23 23 26 10 12 17 15 15 7 11 6 3 12 14 17 17 18 20 18 17 17 17 16 14 13 14 14 15 15 14 13 12 11 10 9 8 8 7 7 6 6 5 5
11 13 18 21 27 25 26 27 17 23 13 17 19 18 6 14 8 6 9 14 17 18 19 18 17 18 16 17 17 16 15 15 15 16 15 13 12 11 11 10 9 9 8 7 5 4 3 2 3
18 16 22 26 25 25 23 23 27 18 22 20 16 13 12 12 8 7 9 12 14 17 17 17 18 15 14 14 15 15 14 14 14 14 14 13 12 11 11 9 8 8 6 5 3 2 2 2 4
16 17 28 25 23 28 21 21 23 23 23 20 14 13 13 17 12 7 11 13 15 16 16 17 17 18 15 13 12 13 13 13 12 12 13 13 11 10 8 7 7 6 5 4 3 2 3 4 5
16 19 22 28 28 20 22 25 15 18 14 23 21 16 8 13 8 9 7 13 16 16 17 17 17 17 17 17 13 12 13 13 12 12 11 11 10 11 12 6 13 7 5 4 4 4 5 6 9
20 18 28 24 23 21 27 25 18 15 20 21 24 22 19 18 9 11 12 12 16 18 19 19 18 17 16 13 15 12 12 10 10 11 12 10 9 9 10 11 9 7 6 6 7 7 7 8 9
21 24 25 25 22 24 27 24 20 18 23 22 19 24 23 21 13 15 14 16 15 17 15 18 18 15 16 13 11 7 6 8 8 11 11 9 7 8 6 7 6 7 10 8 9 8 8 11 5
23 25 25 24 25 26 25 22 24 20 22 14 20 21 20 19 18 17 16 15 17 19 19 18 20 16 14 12 11 12 9 8 7 9 10 5 5 7 6 5 7 5 7 7 6 5 3 4 6
19 21 23 25 22 25 27 24 26 26 23 18 17 13 17 21 19 15 16 14 14 16 18 18 19 16 14 11 11 11 10 9 9 9 11 7 7 5 5 4 3 5 6 6 5 5 2 5 7
18 20 21 19 23 26 23 25 26 26 23 19 22 20 15 20 18 14 12 12 12 15 16 17 15 11 12 10 12 9 8 9 8 8 10 9 7 6 6 5 5 4 4 5 3 5 4 6 5
15 20 21 22 21 24 24 30 35 25 26 25 22 19 21 20 18 18 15 14 14 14 16 13 15 14 11 11 10 9 10 10 9 8 9 9 7 6 6 6 5 6 5 2 3 4 6 7 6
20 21 21 20 24 25 25 34 31 28 26 29 26 21 24 24 24 21 18 14 14 14 18 16 14 14 13 12 11 10 10 9 8 8 8 9 8 7 6 5 4 3 3 4 6 3 7 5 6
17 19 24 22 20 21 30 35 25 28 28 29 27 24 22 23 27 22 18 17 12 14 16 19 16 16 17 10 11 9 11 8 7 6 7 9 7 7 5 4 3 2 5 5 5 4 4 3 5
18 17 19 17 9 19 28 31 21 25 29 29 24 28 26 25 25 24 21 18 17 15 15 21 15 16 16 10 9 9 10 7 7 7 7 10 7 7 5 3 4 5 8 7 6 7 4 6 8
21 24 25 25 19 17 26 23 24 24 28 22 29 19 24 26 24 19 20 20 12 13 16 21 18 15 13 11 13 11 11 8 8 7 10 9 8 8 7 5 6 7 6 7 6 4 4 4 7
23 24 25 23 22 21 21 26 29 23 27 28 22 23 22 24 26 25 23 20 20 14 17 21 18 16 12 12 10 10 10 10 9 9 8 8 8 8 8 7 7 7 6 7 6 6 2 1 2
19 21 23 24 26 22 20 25 25 28 25 26 24 17 20 20 22 23 23 21 20 20 20 17 18 18 14 13 8 8 10 8 8 10 8 8 9 8 5 8 4 4 3 4 6 4 7 4 3
22 22 22 24 22 17 21 19 25 26 25 25 24 22 22 22 20 20 23 18 20 18 19 20 19 20 15 15 13 14 10 11 9 8 7 7 8 9 7 7 7 6 6 6 5 3 3 6 6
20 20 21 17 23 20 25 16 19 26 29 26 25 25 25 24 22 22 22 23 21 19 17 18 19 21 18 16 15 13 12 11 10 9 11 8 7 9 10 7 4 4 2 4 3 3 4 4 5
15 16 20 20 15 18 24 22 19 23 31 31 29 31 29 28 24 23 22 22 21 21 17 18 20 19 17 15 15 12 16 14 11 10 10 9 8 6 7 9 6 4 6 5 5 4 8 7 6
17 14 7 8 11 17 19 23 21 25 28 30 29 30 29 29 24 23 22 23 21 23 19 19 20 19 18 19 17 17 15 16 14 12 9 13 9 6 7 7 6 6 6 6 6 6 5 6 6
16 16 10 11 10 11 17 20 21 28 27 19 17 23 27 28 23 23 23 23 21 25 23 22 24 24 20 19 19 17 17 11 11 9 10 12 9 9 10 9 8 8 5 6 4 4 6 7 6
11 19 18 22 22 17 15 13 26 21 29 23 21 16 26 25 25 24 24 23 27 25 25 21 21 20 19 19 18 16 13 13 16 16 14 11 12 10 11 10 8 8 5 6 5 5 6 6 6
18 4 7 11 10 17 15 15 13 19 27 14 17 11 13 26 25 23 23 21 27 24 23 18 21 23 22 22 19 14 15 17 16 14 14 14 13 13 12 10 7 7 6 6 5 4 6 6 7
8 8 10 12 15 13 7 9 15 12 26 23 16 16 15 23 23 24 22 23 27 27 20 16 20 23 21 21 16 16 18 17 16 15 14 14 13 12 12 9 7 6 7 6 5 5 6 7 8
20 17 16 10 12 12 15 5 17 22 19 22 20 20 20 19 25 24 22 19 13 23 23 18 19 19 18 17 18 18 17 18 16 16 16 14 13 12 11 8 7 7 8 8 7 8 8 9 8
Wind_Direction
249 226 230 239 241 229 249 242 247 256 214 257 285 267 305 356 315 55 116 116 131 135 153 161 142 144 147 149 150 152 150 149 146 144 145 148 148 147 145 136 129 130 130 127 126 125 122 118 116
234 216 225 257 239 244 241 237 248 239 240 94 266 242 260 248 32 123 138 146 148 137 153 162 149 148 150 151 150 150 148 147 147 147 149 150 149 148 145 140 136 132 132 128 125 122 124 130 135
253 220 235 222 233 240 248 248 223 250 208 188 248 229 326 19 67 61 90 145 151 148 161 153 153 149 152 151 148 148 149 149 150 149 149 150 149 148 144 141 139 137 137 132 130 136 141 144 144
216 208 251 252 241 227 246 262 262 295 181 209 241 243 178 46 32 27 138 155 153 158 167 136 149 149 152 148 146 150 149 149 151 148 145 150 149 146 142 142 139 144 142 141 138 136 138 149 157
233 241 232 232 240 247 250 236 257 238 257 244 217 233 181 100 81 135 151 163 156 158 167 152 149 149 152 149 148 150 150 147 151 147 147 151 150 145 140 139 138 142 142 140 140 145 162 177 188
217 234 242 234 244 237 242 255 241 258 220 247 247 221 225 109 134 136 158 169 161 161 155 157 155 151 155 151 150 151 151 152 152 148 146 150 148 142 136 134 138 146 149 154 156 155 171 188 220
234 224 240 249 259 243 235 229 248 231 256 237 247 248 226 152 87 142 158 166 164 160 145 159 168 157 149 150 146 149 151 151 147 145 144 149 145 144 143 144 149 153 158 155 161 171 209 238 245
245 254 255 242 252 259 255 232 229 243 231 254 253 220 239 106 137 143 165 161 166 162 155 162 170 167 171 158 141 144 146 142 138 140 142 143 140 141 145 142 159 158 157 160 177 204 246 245 247
235 250 244 245 251 251 262 262 228 234 252 253 245 236 222 113 138 141 171 168 168 167 162 167 168 172 179 166 150 134 136 132 133 139 139 146 175 175 159 180 141 155 166 182 200 217 234 245 240
233 243 247 260 258 257 260 258 251 233 225 236 249 240 218 154 186 184 179 185 181 173 170 169 169 175 181 161 150 169 156 164 172 175 170 187 175 184 185 133 142 160 187 204 211 221 232 243 256
238 246 262 265 266 278 281 276 244 234 251 224 234 230 235 238 190 220 198 189 194 179 176 175 164 175 179 158 156 164 159 163 174 179 179 205 170 177 195 154 181 197 199 216 196 201 229 225 289
254 253 259 267 273 282 279 279 264 258 247 237 236 241 234 208 213 214 223 206 190 182 179 182 160 173 193 153 169 169 169 166 175 178 191 186 186 158 213 206 187 211 168 233 208 227 251 318 275
254 257 263 262 259 267 273 266 262 260 262 258 266 237 240 239 210 220 215 225 200 183 179 180 160 173 189 158 176 176 171 175 182 169 187 171 208 158 196 194 247 184 223 179 258 252 270 237 236
281 281 268 266 261 251 253 259 263 259 269 258 249 258 240 248 209 211 211 233 215 188 180 175 154 155 178 183 179 171 174 173 187 173 174 190 208 163 187 197 223 228 262 258 220 213 254 246 296
269 267 262 256 258 259 254 251 247 251 256 247 247 248 252 244 241 234 217 222 213 192 174 172 144 147 164 190 171 181 169 174 184 179 161 197 212 158 233 210 223 216 214 321 284 286 227 247 344
260 261 263 253 235 241 238 249 243 244 247 246 245 234 236 245 246 226 231 232 204 206 176 158 149 155 169 198 173 188 159 178 181 172 157 192 188 166 210 203 217 240 238 219 243 337 347 338 0
239 255 254 253 242 245 225 247 246 251 238 231 236 233 241 230 232 233 229 221 215 200 183 156 151 161 177 187 173 190 139 190 168 164 156 168 177 174 225 234 171 66 255 8 15 19 343 355 336
271 248 264 266 250 253 242 248 240 244 234 254 230 223 231 240 229 219 197 220 212 195 201 153 155 162 179 165 170 180 150 178 161 161 141 153 172 164 199 180 56 54 55 56 43 40 18 16 347
276 280 284 288 287 275 282 265 241 246 246 244 226 230 225 223 237 221 209 192 214 214 183 155 160 168 176 160 180 170 159 165 159 151 126 162 157 160 171 190 166 124 124 114 102 86 60 25 354
275 269 267 274 277 265 261 269 262 243 229 238 235 223 229 219 223 223 217 207 187 180 165 162 160 161 171 178 179 169 160 162 155 126 152 151 159 166 174 196 157 170 153 147 144 146 129 272 22
266 277 281 280 278 272 266 260 266 249 242 225 235 233 237 233 212 216 211 202 199 172 153 160 156 157 167 173 167 158 136 137 144 130 150 162 171 172 153 153 152 165 221 80 65 68 38 0 317
264 269 267 262 272 260 248 256 233 243 232 233 229 226 232 238 225 210 204 188 188 166 160 157 160 154 175 168 168 154 149 166 153 133 108 125 145 144 130 96 104 117 103 106 92 80 2 357 339
273 282 268 255 256 266 251 255 263 226 230 224 218 228 229 232 224 220 190 200 163 158 164 167 153 157 175 176 169 171 144 124 125 133 143 138 122 89 99 112 86 110 164 97 108 95 49 26 347
264 266 257 249 261 257 249 251 240 248 223 217 219 217 219 227 216 215 189 190 160 173 169 164 152 168 162 166 162 137 145 140 145 144 148 131 106 102 117 114 117 66 44 41 41 34 67 48 8
240 245 244 236 229 251 242 239 250 252 219 216 220 205 206 218 207 206 190 168 175 173 161 154 159 156 165 152 144 147 142 154 149 149 128 121 108 102 115 91 78 75 56 60 40 24 53 58 36
238 238 235 267 252 270 252 226 237 245 252 215 227 205 199 208 195 191 187 175 163 164 157 158 159 155 151 146 146 149 153 149 131 118 120 99 112 98 96 80 82 77 57 73 25 43 21 46 22
244 243 258 271 289 274 251 209 254 234 241 221 210 205 193 193 190 184 176 186 156 146 155 156 152 149 140 145 149 153 142 130 91 98 107 109 114 117 104 98 86 80 62 52 53 30 28 28 23
246 249 258 244 267 267 265 236 233 224 223 221 174 197 215 183 182 184 170 164 136 153 145 161 150 148 146 150 144 137 123 100 108 118 116 108 107 105 99 90 84 72 62 54 26 32 40 33 32
218 244 231 270 259 272 269 291 345 264 210 198 196 204 222 188 178 180 164 165 149 142 141 153 149 143 143 139 131 125 110 117 113 111 114 109 109 106 97 97 98 101 87 71 69 74 43 41 33
259 245 251 228 240 265 299 268 276 292 218 200 204 190 205 214 183 164 161 126 121 123 142 147 141 133 127 131 108 112 113 116 114 112 112 113 107 105 106 112 101 89 75 65 60 51 42 35 28